Flag for U.S.A. Weather past 2 weeks in Charleston, West Virginia, U.S.A.

Now
80 °F

Partly sunny.


Feels Like: 81 °F
Forecast: 66 / 83 °F
Wind: 14 mph from Southwest

Location: Yeager Airport

Current Time: Jun 30, 2015 at 3:57:15 PM

Latest Report: Jun 30, 2015 at 2:54 PM


Visibility: 10 mi

Pressure: 29.84 "Hg

Humidity: 54%

Dew point: 62 °F

Location of CharlestonLocation

Historic Weather in Charleston — Graph

°F

Charleston temperature yesterday

Maximum temperature yesterday: 80 °F (at 4:54 PM)
Minimum temperature yesterday: 55 °F (at 5:54 AM)
Average temperature yesterday: 68 °F

Past Weeks' High & Low Weather Summary

 TemperatureHumidityPressure
High90 °F (Jun 15, 3:54 PM)97% (Jun 15, 9:54 PM)30.14 "Hg (Jun 15, 9:54 PM)
Low55 °F (Jun 29, 5:54 AM)45% (Jun 24, 5:54 PM)29.70 "Hg (Jun 27, 3:54 PM)
Average75 °F77%29.96 "Hg
* Reported Jun 15 1:54 PM — Jun 30 1:54 PM, Charleston, Weather by CustomWeather, © 2015

Note: Actual official high and low records may vary slightly from our data, if they occured in-between our weather recording intervals... More about our weather records

Advertising

Charleston weather history for previous 24 hours

 ConditionsComfort  
Time TempWeatherWind HumidityBarometerVisibility
1:54 PM
Tue, Jun 30
79 °FPartly sunny.12 mph56%29.87 "Hg10 mi
12:54 PM78 °FPartly sunny.10 mph60%29.88 "Hg10 mi
11:54 AM76 °FPartly sunny.8 mph67%29.89 "Hg10 mi
10:54 AM75 °FPartly sunny.10 mph71%29.90 "Hg10 mi
9:54 AM73 °FScattered clouds.8 mph79%29.90 "Hg10 mi
8:54 AM71 °FBroken clouds.5 mph81%29.90 "Hg10 mi
7:54 AM70 °FScattered clouds.6 mph84%29.89 "Hg10 mi
6:54 AM69 °FPassing clouds.7 mph84%29.88 "Hg10 mi
5:54 AM69 °FPassing clouds.6 mph87%29.85 "Hg10 mi
4:54 AM69 °FOvercast.8 mph87%29.85 "Hg8 mi
3:54 AM69 °FFog.6 mph87%29.84 "Hg6 mi
2:54 AM66 °FFog.No wind96%29.83 "Hg6 mi
1:54 AM67 °FFog.No wind93%29.84 "Hg6 mi
12:54 AM68 °FPassing clouds.No wind90%29.83 "Hg7 mi
11:54 PM
Mon, Jun 29
67 °FPassing clouds.No wind93%29.85 "Hg7 mi
10:54 PM67 °FPassing clouds.3 mph93%29.85 "Hg7 mi
9:54 PM68 °FRain. Fog.7 mph93%29.85 "Hg2 mi
8:54 PM69 °FLight rain. Mostly cloudy.8 mph84%29.84 "Hg7 mi
7:54 PM77 °FCloudy.7 mph56%29.83 "Hg10 mi
6:54 PM78 °FPartly sunny.9 mph52%29.81 "Hg10 mi
5:54 PM80 °FScattered clouds.12 mph49%29.80 "Hg10 mi
4:54 PM80 °FScattered clouds.8 mph47%29.81 "Hg10 mi
3:54 PM78 °FScattered clouds.6 mph60%29.85 "Hg10 mi
Weather by CustomWeather, © 2015

See weather overviewHow to use our weather pages